www.pogodaiklimat.ru

Погода и климат >> Архив погоды >> Гана >> Кумаси


ПОГОДА в Кумаси

  • Прогноз погоды в Кумаси
  • Монитор погоды в Кумаси

АРХИВ ПОГОДЫ в Кумаси

Время (UTC), дата Ветер
(напр.,м/с)
 
Видим.   Явления Облачность Т
(С)
Тd
(С)
f
(%)
Тe
(С)
Тes
(С)
Комфортность P
(гПа)
Po
(гПа)
Тmin
(С)
Tmax
(С)
R
(мм)
R24
(мм)
S
(см)
00 17.01 Ю 5 8000 м дымка 8/8 300 м
[Sc]
+26.8 +24.6 88 +38 +38 очень
душно
1012.3 1012.0
03 17.01 ЮЗ 2 8000 м дымка 9/9 300 м
[Sc]
+26.3 +24.3 89 +37 +37 очень
душно
1011.3 1011.0
06 17.01 ЮЗ 2 8000 м дымка 9/9 300 м
[Sc]
+26.0 +24.4 91 +36 +36 очень
душно
1012.3 1012.0 +25.6
12 17.01 СЗ 1 8000 м мгла 6/6 480 м
[Cu med, cong]
+31.4 +23.5 63 +42 +51 опасность
перегрева
1011.5 1012.0 0.0
15 17.01 З 1 8000 м мгла 6/6 540 м
[Cu hum]
+34.6 +22.7 50 +44 +49 опасность
перегрева
1007.9 1008.0
18 17.01 З 1 12 км гроза без осадков 8/8 360 м
[Cb cap Ac trans Ci sp]
+28.0 +23.8 78 +39 +39 очень
душно
1009.6 1010.0 +35.1 0.0
21 17.01 ЮЗ 3 8000 м мгла {гроза} 9/6 300 м
[Sc Ac trans Cs]
+27.5 +18.5 58 +32 +32 очень
душно
1012.6 1013.0
00 18.01 ЮЗ 3 8000 м дымка {гроза} 9/5 300 м
[Sc Ac trans Cs]
+26.2 +22.5 80 +34 +34 очень
душно
1012.6 1013.0
03 18.01 ЮЗ 2 8000 м дымка 5/5 270 м
[Sc]
+24.5 +23.3 93 +33 +33 очень
душно
1011.6 1012.0
09 18.01 ЮЗ 2 5000 м дымка 8/0
[Ac trans]
+26.1 +23.2 84 +35 +40 очень
душно
1014.0 1014.0
12 18.01 ЮЗ 3 5000 м мгла 9/6 480 м
[Cu med, cong Ac trans]
+30.5 +22.4 62 +40 +43 очень
душно
1012.6 1013.0
15 18.01 ЮЗ 4 5000 м мгла 8/6 500 м
[Cu med, cong Ac trans]
+32.3 +22.4 56 +42 +44 опасность
перегрева
1009.9 1010.0
06 19.01 штиль 0 5000 м дымка 6/0
[Ac trans Ci sp]
+22.8 +21.1 90 +30 +30 очень
душно
1013.5 1014.0 +22.2 0.0
09 19.01 ЮЗ 2 8000 м дымка 9/1 420 м
[Cu med, cong Ac trans]
+26.1 +23.0 83 +35 +38 очень
душно
1015.0 1015.0
12 19.01 Ю 3 15 км 6/3 480 м
[Cu med, cong Ac trans]
+31.1 +22.7 61 +41 +48 опасность
перегрева
1013.4 1013.0
15 19.01 З 1 15 км 8/3 540 м
[Cb cap Ac trans]
+33.4 +21.9 51 +42 +46 опасность
перегрева
1010.2 1010.0
18 19.01 ЮЗ 3 12 км 8/4 400 м
[Cb cap Ac trans Ci sp]
+32.4 +21.6 53 +41 +41 опасность
перегрева
1011.0 1011.0 +34.4
03 20.01 СЗ 2 12 км дымка 8/4 300 м
[Sc Ac trans]
+25.5 +23.4 88 +34 +34 очень
душно
1013.7 1014.0
06 20.01 СЗ 2 8000 м дымка {дождь} 9/6 300 м
[Sc Ac trans]
+23.5 +22.1 92 +30 +30 очень
душно
1014.0 1014.0 +23.3 5
09 20.01 СЗ 3 14 км 6/4 450 м
[Cu med, cong Ac trans Ci fib]
+25.5 +22.0 81 +33 +36 очень
душно
1016.0 1016.0
12 20.01 С 3 14 км 3/0
[Ci fib]
+31.3 +12.7 32 +32 +46 жарко 1014.0 1014.0
15 20.01 СЗ 1 14 км ясно +33.5 +15.5 34 +36 +46 очень
душно
1010.4 1010.0
18 20.01 СВ 2 14 км 5/3 450 м
[Cb cap Ac trans Ci sp]
+32.7 +17.7 41 +37 +37 очень
душно
1011.3 1011.0 +34.0
21 20.01 ЮВ 1 14 км 9/0
[Ac trans]
+29.7 +19.4 54 +35 +35 очень
душно
1014.1 1014.0
00 21.01 ЮЗ 1 10 км 6/0
[Ac trans]
+27.1 +20.0 65 +33 +33 очень
душно
1014.7 1015.0
03 21.01 ЮЗ 1 12 км ясно +25.0 +22.7 87 +33 +33 очень
душно
1013.3 1013.0
06 21.01 штиль 0 5000 м дымка 6/0
[Ci sp]
+23.9 +22.7 93 +31 +31 очень
душно
1014.4 1014.0 +23.7
09 21.01 ЮЗ 1 5000 м дымка 6/3 420 м
[Cu hum Ci sp]
+25.5 +22.8 85 +34 +40 очень
душно
1016.0 1016.0
12 21.01 СВ 4 8000 м мгла ясно +31.8 +8.8 24 +31 +43 жарко 1013.5 1014.0
15 21.01 СЗ 1 8000 м мгла ясно +34.7 +6.9 18 +33 +43 жарко 1010.1 1010.0
18 21.01 СЗ 3 8000 м мгла 4/0
[Ci sp]
+31.6 +10.5 27 +31 +31 жарко 1010.6 1011.0 +35.3
21 21.01 ЮЗ 1 8000 м мгла 3/0
[Ci fib]
+29.0 +13.3 38 +31 +31 жарко 1013.5 1014.0
00 22.01 Ю 1 8000 м мгла 8/3 300 м
[Sc Ac trans Cs]
+26.8 +19.2 63 +32 +32 очень
душно
1013.2 1013.0
03 22.01 ЮВ 1 8000 м мгла 8/0
[Ac trans]
+24.0 +18.0 69 +28 +28 душно 1012.0 1012.0
09 22.01 ЮЗ 2 8000 м дымка ясно +24.8 +21.7 83 +32 +41 очень
душно
1015.0 1015.0
12 22.01 СЗ 3 8000 м мгла ясно +31.3 +16.5 41 +34 +49 душно 1012.2 1012.0
15 22.01 СЗ 3 8000 м мгла ясно +34.6 +18.2 38 +39 +47 очень
душно
1009.5 1010.0
18 22.01 СЗ 2 8000 м мгла 5/0
[Ac trans]
+33.0 +18.0 41 +37 +37 очень
душно
1009.5 1010.0 +35.6
00 23.01 ЮВ 2 8000 м мгла ясно +24.9 +20.4 76 +31 +31 очень
душно
1012.8 1013.0
03 23.01 ЮЗ 1 8000 м дымка 9/9 270 м
[Sc]
+24.0 +22.6 92 +31 +31 очень
душно
1011.9 1012.0
06 23.01 ЮЗ 4 8000 м дымка 9/9 270 м
[Sc]
+24.2 +23.0 93 +32 +32 очень
душно
1012.9 1013.0 +23.8
09 23.01 З 1 8000 м дымка 8/8 300 м
[Cu Sc Ac trans Ci sp]
+25.2 +22.7 86 +33 +35 очень
душно
1014.7 1015.0
12 23.01 С 3 8000 м мгла 3/0
[Ac trans Ci sp]
+30.0 +23.3 67 +40 +54 опасность
солнечного
удара
1012.4 1012.0
15 23.01 СЗ 3 8000 м мгла 3/0
[Ac trans]
+34.5 +18.1 38 +39 +45 очень
душно
1009.0 1009.0
18 23.01 СЗ 1 8000 м мгла 5/0
[Ac trans]
+32.4 +18.2 43 +37 +37 очень
душно
1009.8 1010.0 +35.0
21 23.01 ЮЗ 2 8000 м мгла ясно +29.0 +19.1 55 +34 +34 очень
душно
1012.5 1013.0

 

Местоположение метеостанции Кумаси (Гана): широта 6.72 долгота -1.60 высота над уровнем моря 293 м.

В архиве по умолчанию представлена погода в Кумаси за последнюю неделю. Архивные данные за месяц целиком и за предыдущие месяцы, начиная с января 2011 года, Вы можете получить, выбрав интересующий диапазон дат из раскрывающегося списка и нажав кнопку "Ввод!".


*Определитесь, кто Вы:
робот инопланетянин человек

Внимание! Время в таблицах - всемирное. Для получения местного времени необходимо прибавить поправку, которая равна 1 ч.

Смотрите также архив погоды в соседних городах и на ближайших метеорологических станциях:

Погода в Абетифи (Гана) (94 км)
Погода в Сефви Беквай (Гана) (99 км)
Погода в Суняни (Гана) (105 км)
Погода в Аким Ода (Гана) (111 км)
Погода в Уэнчи (Гана) (127 км)
Погода в Кофоридуа (Гана) (165 км)
Погода в Солтпонде (Гана) (179 км)
Погода в Бондуку (Кот-д'Ивуар) (197 км)
Погода в Аккра (Гана) (201 км)
Погода в Акюсе (Гана) (202 км)

Пояснения к столбцам:

Ветер - указаны скорость ветра в м/с - средняя за 10 мин, порывы в срок и между сроками (в фигурных скобках) и направление, откуда дует ветер: С - северный, СВ - северо-восточный, В - восточный, ЮВ - юго-восточный, Ю - южный, ЮЗ - юго-западный, З - западный, СЗ - северо-западный.
Видимость - горизонтальная дальность видимости в метрах или километрах. При видимости от 1 до 10 км при отсутствии осадков обычно наблюдается дымка, при ухудшении видимости до 1 км и менее - туман. В сухую погоду видимость может ухудшаться дымом, пылью или мглою.
Явления - указаны атмосферные явления, наблюдавшиеся в срок или в последний час перед сроком; фигурными скобками обозначены явления, наблюдавшиеся между сроками (за 1-3 часа до срока); квадратными скобками обозначены град или гололедные отложения с указанием их диаметра в мм.
Облачность - указаны через наклонную черту общая и нижняя облачность в баллах и высота нижней границы облаков в метрах; квадратными скобками обозначены формы облаков: Ci - перистые, Cs - перисто-слоистые, Cc - перисто-кучевые, Ac - высококучевые, As - высокослоистые, Sc - слоисто-кучевые, Ns - слоисто-дождевые, Cu - кучевые, Cb - кучево-дождевые. Подробнее классификацию облаков см. в Атласе облаков (PDF).
T - Температура воздуха - температура, измеренная на высоте 2 м над землей.
Td - Температура точки росы - температура, при понижении до которой содержащийся в воздухе водяной пар достигнет насыщения.
f - Относительная влажность воздуха - влажноcть воздуха, измеренная на высоте 2 м над землей.
Te - Эффективная температура - температура, которую ощущает одетый по сезону человек в тени. Характеристика душности погоды. При расчете учитывается влияние влажности воздуха и скорости ветра на теплоощущения человека.
Tes - Эффективная температура на солнце - температура, которую ощущает человек, с поправкой на солнечный нагрев. Характеристика знойности погоды. Зависит от высоты солнца над горизонтом, облачности и скорости ветра. Ночью, в пасмурную погоду, а также при ветре 12 м/с и более поправка равна нулю.
P - Атмосферное давление - приведенное к уровню моря атмосферное давление.
Po - Атмосферное давление - измеренное на уровне метеостанции атмосферное давление.
Tmin - Минимальная температура - минимум температуры воздуха на высоте 2 м над землей.
Tmax - Максимальная температура - максимум температуры воздуха на высоте 2 м над землей.
R - Количество осадков - Количество выпавших осадков за период времени, мм. При наведении курсора мыши на число - период времени, за который выпало указанное количество осадков.
R24 - Количество осадков - Количество выпавших осадков за 24 часа, мм.
S - Снежный покров - Высота снежного покрова, см. При наведении курсора мыши на число - состояние снежного покрова и степень покрытия местности в баллах.